Overview Statistics Trail Chart Weather Telemetry Raw packets
 

This is the latest recevied weather packets stored in our database for station/object N5CSU. If no packets are shown the sender has not sent any weather packets the latest 10 day(s).

<< 12 13 14 15 16 17 18 >>
Time Temp. Humidity Pressure Rain* Wind** Luminosity Snow
1788534872 30° C 76% 1015 hPa 0 mm - 20 W/m² -
1788534567 30° C 76% 1014.9 hPa 0 mm - 24 W/m² -
1788534262 29.44° C 77% 1015.2 hPa 0 mm - 19 W/m² -
1788533960 29.44° C 78% 1015 hPa 0 mm - 19 W/m² -
1788533656 29.44° C 79% 1015.1 hPa 0 mm - 18 W/m² -
1788533351 28.89° C 80% 1015 hPa 0 mm - 26 W/m² -
1788533041 28.89° C 80% 1015.2 hPa 0 mm - 24 W/m² -
1788532737 28.89° C 82% 1015.1 hPa 0 mm - 20 W/m² -
1788532434 28.33° C 82% 1015.3 hPa 0 mm - 18 W/m² -
1788532130 28.89° C 82% 1015.3 hPa 0 mm - 18 W/m² -
1788531825 28.33° C 83% 1015.2 hPa 0 mm - 16 W/m² -
1788531524 28.33° C 84% 1015.1 hPa 0 mm - 23 W/m² -
1788531220 27.78° C 85% 1015.2 hPa 0 mm - 20 W/m² -
1788530917 27.78° C 86% 1015.3 hPa 0 mm - 21 W/m² -
1788530643 27.78° C 86% 1015.1 hPa 0 mm - 18 W/m² -
1788530310 27.78° C 86% 1015.1 hPa 0 mm - 15 W/m² -
1788530005 27.22° C 87% 1015.1 hPa 0 mm - 17 W/m² -
1788529696 27.22° C 88% 1015.1 hPa 0 mm - 16 W/m² -
1788529395 26.67° C 88% 1014.9 hPa 0 mm - 15 W/m² -
1788529090 26.67° C 89% 1014.9 hPa 0 mm - 14 W/m² -
1788528786 26.67° C 89% 1014.8 hPa 0 mm - 11 W/m² -
1788528485 26.67° C 89% 1014.8 hPa 0 mm - 9 W/m² -
1788528181 26.11° C 90% 1014.8 hPa 0 mm - 8 W/m² -
1788527880 26.11° C 90% 1014.5 hPa 0 mm - 8 W/m² -
1788527576 25.56° C 91% 1014.8 hPa 0 mm - 8 W/m² -

* Rain latest hour (hover to see other rain measurements)
** Current wind speed in m/s (hover to see current wind gust speed)